User: anonymous   Login
Location: downtown San Diego
(32.7310°N, 117.1990°W)
Time: 17:36:29
(UTC-07:00)
Language:

Resurs 01 Rocket - Orbit

View from above orbital plane
View from above orbital plane
View from above satellite
View from above satellite

Ground track
Ground track

The orbit data is extracted from the following two-line orbital elements,

1 23343U 94074B   19112.74570128 -.00000002  00000-0  71915-5 0  9998
2 23343  98.0588 162.8716 0008195  71.9096  40.4878 14.76773646316384
Epoch (UTC): 22 April 2019 17:53:48
Eccentricity: 0.0008195
inclination: 98.0588°
perigee height: 634 km
apogee height: 645 km
right ascension of ascending node: 162.8716°
argument of perigee: 71.9096°
revolutions per day: 14.76773646
mean anomaly at epoch: 40.4878°
orbit number at epoch: 31638

The dashed part of the orbit path shows where the satellite is in the earth's shadow,  

DLR